{"data":{"norad_id":65533,"intl_designator":"2025-200P","name":"STARLINK-35172","alt_names":[],"object_type":"PAYLOAD","status":"ACTIVE","operator":null,"country":"US","launch_date":"2025-09-06","launch_site_code":"AFWTR","launch_vehicle":null,"mission":null,"orbit_class":"UNKNOWN","rcs_meters":null,"size_class":null,"mass_kg":null,"dimensions":null,"purposes":["comms"],"wikipedia_slug":null,"has_3d_model":false,"image_url":null,"decayed_at":null,"tle_current":{"epoch":"2026-09-20T10:29:43.774080Z","epoch_age_seconds":117390,"freshness":"FRESH","line1":"1 65533U 25200P   26263.43731220  .00018080  00000+0  56031-3 0  9996","line2":"2 65533  97.2868 329.8543 0001366  96.6009 263.5389 15.33484337 58633","mean_motion":15.33484337,"eccentricity":0.0001366,"inclination_deg":97.2868,"raan_deg":329.8543,"arg_perigee_deg":96.6009,"mean_anomaly_deg":263.5389,"bstar":0.00056031,"rev_number":5863,"period_min":93.903795771212,"perigee_km":464.49130701937,"apogee_km":466.3609684686,"semimajor_km":6843.563137744,"source":"CELESTRAK","updated_at":"2026-09-21T09:00:35.650275Z"}}}